Tracking 17149 objects as of 22-May-2015
HD Live streaming from Space Station

SL-8 R/B

Track SL-8 R/B now!
10-day predictions
SL-8 R/B is classified as:


NORAD ID: 13917
Int'l Code: 1983-021B
Perigee: 962.1 km
Apogee: 1,002.9 km
Inclination: 82.9 °
Period: 104.6 minutes
Semi major axis: 7353 km
RCS: 4.8067 m2 (large)
Launch date: March 24, 1983
Source: Commonwealth of Independent States (former USSR) (CIS)

Note: This is a ROCKET BODY
Your satellite tracking list
Your tracking list is empty





NASA's NSSDC Master Catalog

Two Line Element Set (TLE):
1 13917U 83021B   15142.11167140  .00000043  00000-0  28005-4 0  9995
2 13917 082.9437 089.2710 0027734 206.3025 207.1112 13.76759992615413

Source of the keplerian elements: AFSPC

N2YO: 311